Weather History for CXRB - August, 2013

Change the Weather History Date:

Tuesday, August 20, 2013

  Actual Average Record
Temperature  
Mean Temperature 26 °F -  
Max Temperature 30 °F - - ()
Min Temperature 23 °F - - ()
Degree Days  
Heating Degree Days 38    
Moisture  
Dew Point 23 °F    
Average Humidity 82    
Maximum Humidity 91    
Minimum Humidity 62    
Precipitation  
Precipitation 0.00 in - - ()
Sea Level Pressure  
Sea Level Pressure 29.50 in    
Wind  
Wind Speed 10 mph ()    
Max Wind Speed 17 mph    
Max Gust Speed -    
T = Trace of Precipitation, MM = Missing Value Source: Averaged Metar Reports

Daily Weather History Graph

Daily Weather History Graph

Search for Another Location

Airport or City:

Trip Planner

Search our weather history database for the weather conditions in past years. The results will help you decide how hot, cold, wet, or windy it might be!

Date:

Astronomy

Aug. 20, 2013 Rise Set
Actual Time 2:27 AM MDT 10:11 PM MDT
Civil Twilight Sun does not rise Sun does not rise
Nautical Twilight Sun does not rise Sun does not rise
Astronomical Twilight Sun does not rise Sun does not rise
Moon 8:17 PM MDT (8/20) 2:36 AM MDT (8/20)
Length of Visible Light 24h 00m
Length of Day
19h 43m
Full, 100% of the Moon is Illuminated
Aug 20
Full
Aug 20
Full
Aug 28
Last Quarter
Sep 5
New
Sep 12
First Quarter

Hourly Weather History & Observations

Time (MDT) Temp. Windchill Dew Point Humidity Pressure Visibility Wind Dir Wind Speed Gust Speed Precip Events Conditions
12:00 AM 26 °F - 18 °F 62% 29.52 in - NW 9.2 mph - -  
12:00 AM 25.9 °F 16.6 °F 18.3 °F 73% 29.52 in - NW 9.2 mph - N/A   Unknown
1:00 AM 24.4 °F 16.5 °F 18.9 °F 79% 29.52 in - NNW 6.9 mph - N/A   Unknown
2:00 AM 23.7 °F 17.8 °F 18.9 °F 82% 29.52 in - NNW 4.6 mph - N/A   Unknown
3:00 AM 24.8 °F 19.1 °F 19.2 °F 79% 29.52 in - NW 4.6 mph - N/A   Unknown
4:00 AM 26.1 °F 16.8 °F 22.5 °F 86% 29.52 in - West 9.2 mph - N/A   Unknown
5:00 AM 26.1 °F 15.6 °F 23.5 °F 90% 29.52 in - West 11.5 mph - N/A   Unknown
6:00 AM 27 °F - 24 °F 85% 29.52 in - West 12.7 mph - -  
6:00 AM 26.8 °F 15.9 °F 24.3 °F 90% 29.52 in - West 12.7 mph - N/A   Unknown
7:00 AM 26.6 °F 16.2 °F 24.3 °F 91% 29.52 in - West 11.5 mph - N/A   Unknown
8:00 AM 27.3 °F 16.1 °F 24.8 °F 90% 29.51 in - WSW 13.8 mph - N/A   Unknown
9:00 AM 27.1 °F 15.4 °F 23.5 °F 86% 29.51 in - West 15.0 mph - N/A   Unknown
10:00 AM 27.5 °F 16.8 °F 23.4 °F 84% 29.51 in - West 12.7 mph - N/A   Unknown
11:00 AM 28.2 °F 17.7 °F 25.0 °F 88% 29.50 in - WSW 12.7 mph - N/A   Unknown
12:00 PM 28.6 °F 17.7 °F 25.5 °F 88% 29.50 in - West 13.8 mph - N/A   Unknown
1:00 PM 29.3 °F 17.3 °F 25.2 °F 85% 29.50 in - West 17.3 mph - N/A   Unknown
2:00 PM 28.9 °F 17.7 °F 25.7 °F 88% 29.50 in - West 15.0 mph - N/A   Unknown
3:00 PM 30.0 °F 19.1 °F 24.4 °F 80% 29.50 in - WSW 15.0 mph - N/A   Unknown
4:00 PM 29.5 °F 18.8 °F 23.7 °F 79% 29.50 in - WSW 13.8 mph - N/A   Unknown
5:00 PM 30.0 °F 19.1 °F 22.5 °F 73% 29.49 in - WSW 15.0 mph - N/A   Unknown
6:00 PM 30 °F - 24 °F 72% 29.49 in - SW 12.7 mph - -  
6:00 PM 29.8 °F 19.8 °F 24.4 °F 80% 29.49 in - SW 12.7 mph - N/A   Unknown
7:00 PM 29.1 °F 19.4 °F 24.6 °F 83% 29.48 in - SW 11.5 mph - N/A   Unknown
8:00 PM 28.9 °F 19.2 °F 24.8 °F 84% 29.47 in - SSW 11.5 mph - N/A   Unknown
9:00 PM 28.9 °F 18.2 °F 24.3 °F 83% 29.45 in - SW 13.8 mph - N/A   Unknown
10:00 PM 28.8 °F 18.4 °F 24.4 °F 84% 29.44 in - SSW 12.7 mph - N/A   Unknown
11:00 PM 28.6 °F 16.4 °F 23.9 °F 83% 29.42 in - SSW 17.3 mph - N/A   Unknown